Weather History for Gillette, WY

Change the Weather History Date:

Wednesday, April 24, 2013

  Actual Average Record
Temperature  
Mean Temperature 35 °F 45 °F  
Max Temperature 43 °F 59 °F 88 °F (1980)
Min Temperature 26 °F 32 °F 17 °F (2002)
Degree Days  
Heating Degree Days 30 20  
Month to date heating degree days 772 559  
Since 1 July heating degree days 6859 6906  
Cooling Degree Days 0 0  
Month to date cooling degree days 0 0  
Year to date cooling degree days 0 0  
Moisture  
Dew Point 26 °F    
Average Humidity 74    
Maximum Humidity 92    
Minimum Humidity 55    
Precipitation  
Precipitation 0.03 in 0.06 in 0.93 in (1935)
Month to date precipitation 1.54 1.03  
Year to date precipitation 2.95 2.77  
Sea Level Pressure  
Sea Level Pressure 30.15 in    
Wind  
Wind Speed 14 mph (NW)    
Max Wind Speed 30 mph    
Max Gust Speed 35 mph    
Visibility 6 miles    
Events Fog , Snow    
T = Trace of Precipitation, MM = Missing Value Source: NWS Daily Summary

Daily Weather History Graph

Daily Weather History Graph

Search for Another Location

Airport:

Trip Planner

Search our weather history database for the weather conditions in past years. The results will help you decide how hot, cold, wet, or windy it might be!

Date:

Astronomy

Apr. 24, 2013 Rise Set
Actual Time 6:03 AM MDT 7:58 PM MDT
Civil Twilight 5:32 AM MDT 8:29 PM MDT
Nautical Twilight 4:53 AM MDT 9:07 PM MDT
Astronomical Twilight 4:12 AM MDT 9:49 PM MDT
Moon 7:03 PM MDT (4/24) 5:11 AM MDT (4/24)
Length of Visible Light 14h 57m
Length of Day
13h 54m
Waxing Gibbous, 98% of the Moon is Illuminated
Apr 24
Waxing Gibbous
Apr 25
Full
May 2
Last Quarter
May 9
New
May 17
First Quarter

Hourly Weather History & Observations

Time (MDT) Temp. Windchill Dew Point Humidity Pressure Visibility Wind Dir Wind Speed Gust Speed Precip Events Conditions
12:53 AM 27.0 °F 17.3 °F 19.0 °F 72% 30.20 in 10.0 mi West 10.4 mph - N/A   Partly Cloudy
1:53 AM 27.0 °F 16.1 °F 19.9 °F 75% 30.18 in 10.0 mi WSW 12.7 mph - N/A   Scattered Clouds
2:53 AM 28.0 °F 16.5 °F 21.0 °F 75% 30.15 in 10.0 mi West 15.0 mph - N/A   Clear
3:53 AM 30.2 °F 19.3 °F 21.2 °F 69% 30.06 in 10.0 mi West 15.0 mph - N/A   Clear
4:53 AM 30.0 °F 19.5 °F 23.0 °F 75% 30.14 in 10.0 mi West 13.8 mph - N/A   Clear
5:53 AM 30.0 °F 19.1 °F 26.1 °F 85% 30.16 in 8.0 mi WNW 15.0 mph - 0.00 in Snow Light Snow
6:13 AM 30.2 °F 20.8 °F 26.6 °F 86% 30.09 in 1.8 mi NW 11.5 mph - 0.00 in Snow Light Snow
6:28 AM 30.2 °F 20.2 °F 28.4 °F 93% 30.09 in 0.8 mi NW 12.7 mph - 0.00 in Snow Light Snow
6:39 AM 30.2 °F 20.2 °F 28.4 °F 93% 30.10 in 1.2 mi NW 12.7 mph - 0.00 in Snow Light Snow
6:43 AM 30.2 °F 16.5 °F 28.4 °F 93% 30.11 in 0.8 mi NNW 24.2 mph 28.8 mph 0.00 in Snow Light Snow
6:50 AM 28.4 °F 15.1 °F 26.6 °F 93% 30.11 in 0.5 mi NNW 20.7 mph 29.9 mph 0.00 in Fog , Snow Light Snow
6:53 AM 28.0 °F 14.9 °F 26.1 °F 92% 30.19 in 0.5 mi NNW 19.6 mph 29.9 mph 0.01 in Fog , Snow Snow
6:57 AM 28.4 °F 15.4 °F 26.6 °F 93% 30.11 in 0.8 mi NNW 19.6 mph - 0.00 in Snow Light Snow
7:08 AM 28.4 °F 16.6 °F 26.6 °F 93% 30.11 in 0.5 mi NNW 16.1 mph - 0.00 in Fog , Snow Light Snow
7:22 AM 28.4 °F 18.0 °F 26.6 °F 93% 30.12 in 0.8 mi NW 12.7 mph - 0.00 in Snow Light Snow
7:32 AM 28.4 °F 17.5 °F 26.6 °F 93% 30.12 in 2.0 mi NNW 13.8 mph - 0.01 in Snow Light Snow
7:38 AM 28.4 °F 17.0 °F 26.6 °F 93% 30.12 in 3.0 mi NW 15.0 mph - 0.01 in Snow Light Snow
7:43 AM 28.4 °F 18.0 °F 26.6 °F 93% 30.12 in 1.8 mi NW 12.7 mph - 0.01 in Snow Light Snow
7:53 AM 28.9 °F 18.2 °F 27.0 °F 92% 30.24 in 4.0 mi WNW 13.8 mph - 0.01 in Snow Light Snow
8:03 AM 28.4 °F 16.2 °F 24.8 °F 86% 30.13 in 2.5 mi NW 17.3 mph - 0.00 in Snow Light Snow
8:11 AM 28.4 °F 15.8 °F 24.8 °F 86% 30.14 in 1.0 mi WNW 18.4 mph - 0.00 in Snow Light Snow
8:21 AM 28.4 °F 15.8 °F 26.6 °F 93% 30.14 in 3.0 mi WNW 18.4 mph - 0.00 in Snow Light Snow
8:39 AM 28.4 °F 16.6 °F 26.6 °F 93% 30.14 in 4.0 mi WNW 16.1 mph - 0.00 in   Overcast
8:53 AM 28.9 °F 16.9 °F 25.0 °F 85% 30.26 in 10.0 mi WNW 17.3 mph - 0.00 in   Overcast
9:12 AM 28.4 °F 16.6 °F 24.8 °F 86% 30.16 in 1.8 mi NW 16.1 mph 25.3 mph 0.00 in Snow Light Snow
9:20 AM 28.4 °F 16.6 °F 24.8 °F 86% 30.16 in 1.0 mi NW 16.1 mph - 0.00 in Snow Light Snow
9:29 AM 28.4 °F 17.5 °F 26.6 °F 93% 30.16 in 0.8 mi WNW 13.8 mph - 0.00 in Snow Light Snow
9:38 AM 28.4 °F 17.5 °F 26.6 °F 93% 30.16 in 2.5 mi WNW 13.8 mph - 0.00 in Snow Light Snow
9:45 AM 30.2 °F 20.2 °F 26.6 °F 86% 30.15 in 6.0 mi WNW 12.7 mph - 0.00 in   Overcast
9:53 AM 30.9 °F 19.8 °F 27.0 °F 85% 30.25 in 8.0 mi WNW 16.1 mph - 0.00 in   Overcast
10:26 AM 32.0 °F 20.5 °F 24.8 °F 75% 30.15 in 10.0 mi NW 18.4 mph - N/A   Scattered Clouds
10:53 AM 33.1 °F 21.5 °F 24.1 °F 70% 30.23 in 10.0 mi NW 19.6 mph 24.2 mph N/A   Mostly Cloudy
11:11 AM 32.0 °F 21.2 °F 26.6 °F 80% 30.15 in 5.0 mi NW 16.1 mph - 0.00 in Snow Light Snow
11:22 AM 30.2 °F 18.9 °F 26.6 °F 86% 30.15 in 1.8 mi NW 16.1 mph - 0.00 in Snow Light Snow
11:36 AM 30.2 °F 18.5 °F 26.6 °F 86% 30.16 in 0.8 mi NW 17.3 mph - 0.00 in Snow Light Snow
11:53 AM 32.0 °F 21.6 °F 28.0 °F 85% 30.25 in 7.0 mi NW 15.0 mph - 0.01 in Snow Light Snow
12:00 PM 32.0 °F 22.1 °F 28.4 °F 87% 30.16 in 9.0 mi NW 13.8 mph - 0.00 in   Overcast
12:16 PM 33.8 °F 23.9 °F 26.6 °F 75% 30.16 in 10.0 mi WNW 15.0 mph - 0.00 in   Mostly Cloudy
12:24 PM 33.8 °F 23.5 °F 26.6 °F 75% 30.16 in 10.0 mi NW 16.1 mph - 0.00 in   Overcast
12:36 PM 32.0 °F 21.2 °F 26.6 °F 80% 30.15 in 3.0 mi NW 16.1 mph - 0.00 in Snow Light Snow
12:53 PM 33.1 °F 21.9 °F 27.0 °F 78% 30.25 in 5.0 mi NW 18.4 mph - 0.00 in Snow Light Snow
1:01 PM 33.8 °F 24.8 °F 28.4 °F 81% 30.15 in 1.8 mi NNW 12.7 mph 21.9 mph 0.00 in Snow Light Snow
1:08 PM 33.8 °F 25.3 °F 30.2 °F 87% 30.15 in 2.0 mi NNW 11.5 mph - 0.00 in Snow Light Snow
1:16 PM 35.6 °F 27.1 °F 28.4 °F 75% 30.14 in 9.0 mi NW 12.7 mph - 0.00 in   Mostly Cloudy
1:53 PM 37.0 °F 26.7 °F 26.1 °F 65% 30.21 in 10.0 mi NNW 19.6 mph - 0.00 in   Mostly Cloudy
2:13 PM 33.8 °F 23.2 °F 30.2 °F 87% 30.15 in 1.8 mi NNW 17.3 mph - 0.00 in Snow Light Snow
2:17 PM 33.8 °F 23.2 °F 28.4 °F 81% 30.15 in 3.0 mi NW 17.3 mph - 0.00 in Snow Light Snow
2:32 PM 33.8 °F 22.8 °F 28.4 °F 81% 30.15 in 3.0 mi NW 18.4 mph - 0.00 in Snow Light Snow
2:48 PM 35.6 °F 26.6 °F 28.4 °F 75% 30.15 in 7.0 mi WNW 13.8 mph - 0.00 in Snow Light Snow
2:53 PM 36.0 °F 26.7 °F 28.0 °F 73% 30.23 in 9.0 mi NW 15.0 mph - 0.00 in   Mostly Cloudy
3:53 PM 39.0 °F 31.8 °F 28.0 °F 65% 30.19 in 10.0 mi NW 11.5 mph - N/A   Partly Cloudy
4:53 PM 41.0 °F 32.5 °F 27.0 °F 57% 30.16 in 10.0 mi WNW 17.3 mph - N/A   Partly Cloudy
5:53 PM 42.1 °F 37.1 °F 28.9 °F 60% 30.14 in 10.0 mi NNW 8.1 mph - N/A   Partly Cloudy
6:53 PM 39.9 °F 33.4 °F 30.0 °F 68% 30.13 in 10.0 mi SW 10.4 mph - N/A   Partly Cloudy
7:53 PM 36.0 °F 28.0 °F 28.9 °F 76% 30.13 in 10.0 mi SSW 11.5 mph - N/A   Clear
8:53 PM 36.0 °F 28.0 °F 27.0 °F 70% 30.12 in 10.0 mi SSW 11.5 mph - N/A   Clear
9:53 PM 30.9 °F 22.8 °F 26.1 °F 82% 30.13 in 10.0 mi South 9.2 mph - N/A   Clear
10:53 PM 30.9 °F 23.5 °F 25.0 °F 79% 30.09 in 10.0 mi SSE 8.1 mph - N/A   Clear
11:53 PM 32.0 °F 28.7 °F 25.0 °F 75% 30.07 in 10.0 mi SSE 3.5 mph - N/A   Clear